CW7842 Weather Reports


time (UTC)temp
C
wind
direction
speed
KPH
gust
KPH
rain 1hr
cm
rain 24hr
cm
rain mn
cm
humidity
%
barometer
mb
20260507013510 10 169 0.0 0.0 0.20 0.71 0.71 92 1009.6
20260507010514 10 169 0.0 0.0 0.18 0.61 0.61 92 1009.4
20260507003513 10 169 0.0 0.0 0.15 0.51 0.51 92 1009.3
20260507000512 11 334 0.0 0.0 0.20 0.43 0.43 92 1009.1
20260506233512 11 264 1.6 17.7 0.23 0.36 0.36 92 1008.9
20260506230511 11 262 3.2 24.1 0.23 0.23 0.23 92 1008.8
20260506223510 11 305 0.0 0.0 0.15 0.15 0.15 91 1008.7
20260506220509 11 211 0.0 0.0 0.03 0.03 0.03 91 1008.6
20260506213514 11 301 1.6 19.3 0.23 0.74 0.74 91 1008.4
20260506210513 11 319 6.4 25.7 0.23 0.61 0.61 91 1008.1
20260506203512 11 256 1.6 22.5 0.20 0.51 0.51 90 1008.0
20260506200512 11 248 3.2 22.5 0.15 0.38 0.38 90 1007.8
20260506193511 11 260 3.2 16.1 0.10 0.30 0.30 89 1007.5
20260506190510 12 316 0.0 14.5 0.08 0.23 0.23 89 1007.1
20260506183509 12 246 1.6 16.1 0.05 0.20 0.20 89 1006.9
20260506180514 12 324 1.6 11.3 0.00 0.15 0.15 88 1006.4
20260506173513 12 229 0.0 14.5 0.03 0.15 0.15 88 1006.0
20260506170512 13 223 3.2 17.7 0.03 0.15 0.15 88 1005.7
20260506163511 13 251 4.8 19.3 0.05 0.13 0.13 87 1005.8
20260506153510 13 244 0.0 0.0 0.08 0.08 0.08 83 1005.9
20260506150509 15 247 0.0 0.0 0.00 0.00 0.00 79 1005.8
20260506143513 17 238 1.6 19.3 0.00 0.00 0.00 68 1005.4
20260506140513 17 308 0.0 1.6 0.00 0.00 0.00 65 1004.9
20260506130511 18 319 0.0 6.4 0.00 0.00 0.00 63 1004.7
20260506123511 18 350 0.0 6.4 0.00 0.00 0.00 64 1004.6
20260506120510 18 261 0.0 0.0 0.00 0.00 0.00 66 1004.6
20260506103512 17 116 0.0 0.0 0.00 0.00 0.00 71 1005.4
20260506100512 16 81 0.0 0.0 0.00 0.00 0.00 73 1005.4
20260506093511 16 273 1.6 14.5 0.00 0.00 0.00 74 1005.4
20260506090510 16 309 1.6 11.3 0.00 0.00 0.00 75 1005.5
20260506083510 16 18 0.0 6.4 0.00 0.00 0.00 77 1005.5
20260506080513 15 78 0.0 0.0 0.00 0.00 0.00 79 1005.2
20260506073513 15 38 1.6 9.7 0.00 0.00 0.00 80 1004.9
20260506060510 12 261 0.0 0.0 0.00 0.00 0.00 88 1005.2
20260506050509 11 248 0.0 0.0 0.00 0.00 0.00 91 1005.4
20260506040512 11 248 0.0 0.0 0.00 0.00 0.00 91 1005.2
20260506033512 11 267 0.0 0.0 0.00 0.00 0.00 91 1005.3
20260506023511 12 271 0.0 0.0 0.00 0.00 0.00 91 1006.0
20260506020510 12 238 0.0 0.0 0.00 0.00 0.00 91 1005.9